Weather in Ziar nad Hronom

Slovakia     48°35′30″N   18°50′57″E
temp.,
°C
wind,
m/s
gust,
m/s
humid.,
%
clouds,
%
prec.,
mm/h
press.,
hPa
HPBL,
m
19 april, mon
mon1923:00+5n0194100 0.6 101865
02:00+5nnw1293100 0.8 101777
05:00+5n1294100 0.1 1017112
08:00+5ne1393100 0.5 1017669
11:00+5ene1292100 0.3 1017702
14:00+6s0289100 1.1 1016536
17:00+6ssw1194100 0.6 1015137
20:00+5wsw1197100 1.0 101639
20 april, tue
tue2023:00+5wnw1196100 0.5 101527
02:00+5nnw1197100 0.6 101528
05:00+5nnw129895 0.0 101476
08:00+6n128795 0.0 1014303
11:00+8n127692 0.1 1014592
14:00+12wnw225848 0.6 10131290
17:00+12nnw334893 0.4 10121566
20:00+6nnw217641 0.4 101411
21 april, wed
wed2123:00+4n22845 0.0 101519
02:00+3n118580 0.0 101511
05:00+5nnw117698 0.0 101536
08:00+8wnw11653 0.0 1015213
11:00+12w344614 0.0 10151668
14:00+14w444645 0.3 10141909
17:00+12w3657100 0.3 1014981
20:00+7w118021 0.4 101510
22 april, thu
thu2223:00+7ssw1184100 0.1 101611
02:00+7s119398 0.7 101516
05:00+6nw119771 0.3 101610
08:00+8wnw1186100 0.3 1016114
11:00+12wsw34555 0.4 10151426
14:00+12w5760100 1.6 10151779
17:00+11wnw3563100 0.7 10151182
20:00+7wnw2388100 1.3 1016149
23 april, fri
fri2323:00+4nw2585100 0.2 1018249
02:00+1nw22890 0.2 102039
05:00−1nnw23953 0.0 102155
08:00+4nw24714 0.0 1022446
11:00+8nw354484 0.0 10221815
14:00+10nw5637100 0.0 10212332
17:00+9nw574077 0.0 10222107
20:00+4nw22610 0.0 102420